| time (UTC) | temp F | wind direction | speed knots | gust knots | rain 1hr in | rain 24hr in | rain mn in | humidity % | barometer mb |
| 20260503053431 | 53 | 212 | 0.0 | 0.9 | 0.01 | 0.08 | 0.01 | 93 | 1014.7 |
| 20260503052931 | 53 | 212 | 0.0 | 0.0 | 0.01 | 0.08 | 0.01 | 93 | 1014.6 |
| 20260503052431 | 53 | 212 | 0.0 | 0.9 | 0.01 | 0.08 | 0.01 | 93 | 1014.5 |
| 20260503052216 | 52 | 212 | 0.0 | 0.9 | 0.01 | 0.08 | 0.01 | 93 | 1014.5 |
| 20260503051431 | 52 | 212 | 0.0 | 0.9 | 0.01 | 0.08 | 0.01 | 93 | 1014.4 |
| 20260503050928 | 52 | 212 | 0.0 | 2.6 | 0.01 | 0.08 | 0.01 | 93 | 1014.5 |
| 20260503045928 | 52 | 212 | 1.7 | 2.6 | 0.01 | 0.07 | 0.01 | 93 | 1014.5 |
| 20260503045426 | 52 | 212 | 0.9 | 1.7 | 0.01 | 0.07 | 0.01 | 92 | 1014.5 |
| 20260503044925 | 52 | 212 | 0.0 | 0.9 | 0.00 | 0.07 | 0.00 | 92 | 1014.5 |
| 20260503044425 | 52 | 212 | 0.0 | 0.0 | 0.00 | 0.07 | 0.00 | 92 | 1014.5 |
| 20260503043926 | 52 | 212 | 0.0 | 0.0 | 0.00 | 0.07 | 0.00 | 92 | 1014.5 |
| 20260503043657 | 52 | 212 | 0.0 | 0.0 | 0.00 | 0.07 | 0.00 | 92 | 1014.5 |
| 20260503043155 | 52 | 212 | 0.0 | 0.0 | 0.00 | 0.07 | 0.00 | 92 | 1014.5 |
| 20260503042422 | 52 | 212 | 0.0 | 3.5 | 0.00 | 0.07 | 0.00 | 92 | 1014.4 |
| 20260503041922 | 52 | 212 | 0.0 | 4.3 | 0.00 | 0.07 | 0.00 | 92 | 1014.4 |
| 20260503041422 | 52 | 212 | 2.6 | 4.3 | 0.00 | 0.07 | 0.00 | 92 | 1014.4 |
| 20260503040922 | 52 | 191 | 1.7 | 3.5 | 0.00 | 0.07 | 0.00 | 92 | 1014.4 |
| 20260503040420 | 52 | 270 | 0.0 | 3.5 | 0.00 | 0.07 | 0.00 | 91 | 1014.3 |
| 20260503035918 | 52 | 270 | 0.9 | 5.2 | 0.00 | 0.07 | 0.00 | 91 | 1014.4 |
| 20260503035428 | 52 | 239 | 3.5 | 6.1 | 0.00 | 0.07 | 0.00 | 92 | 1014.3 |
| 20260503034414 | 52 | 216 | 5.2 | 7.8 | 0.00 | 0.07 | 0.00 | 92 | 1014.3 |
| 20260503033910 | 52 | 215 | 4.3 | 5.2 | 0.00 | 0.07 | 0.00 | 92 | 1014.2 |
| 20260503033411 | 52 | 304 | 1.7 | 3.5 | 0.00 | 0.07 | 0.00 | 92 | 1014.1 |
| 20260503032910 | 52 | 304 | 2.6 | 3.5 | 0.00 | 0.07 | 0.00 | 92 | 1014.1 |
| 20260503032642 | 52 | 304 | 1.7 | 5.2 | 0.00 | 0.07 | 0.00 | 92 | 1014.2 |
| 20260503031909 | 52 | 304 | 1.7 | 5.2 | 0.00 | 0.07 | 0.00 | 92 | 1014.3 |
| 20260503031409 | 52 | 222 | 5.2 | 5.2 | 0.00 | 0.07 | 0.00 | 92 | 1014.4 |
| 20260503030906 | 52 | 228 | 3.5 | 4.3 | 0.00 | 0.07 | 0.00 | 93 | 1014.2 |
| 20260503030407 | 53 | 259 | 0.0 | 2.6 | 0.00 | 0.07 | 0.00 | 93 | 1014.1 |
| 20260503025903 | 53 | 259 | 0.0 | 0.9 | 0.00 | 0.07 | 0.00 | 93 | 1014.1 |
| 20260503025404 | 53 | 259 | 0.0 | 1.7 | 0.00 | 0.07 | 0.00 | 93 | 1014.0 |
| 20260503024903 | 53 | 259 | 0.0 | 2.6 | 0.00 | 0.07 | 0.00 | 93 | 1014.1 |
| 20260503023903 | 53 | 259 | 2.6 | 3.5 | 0.00 | 0.07 | 0.00 | 93 | 1014.2 |
| 20260503023404 | 53 | 259 | 0.0 | 4.3 | 0.00 | 0.07 | 0.00 | 93 | 1014.3 |
| 20260503022903 | 53 | 259 | 1.7 | 4.3 | 0.00 | 0.07 | 0.00 | 93 | 1014.3 |
| 20260503022403 | 53 | 259 | 3.5 | 4.3 | 0.00 | 0.07 | 0.00 | 93 | 1014.4 |
| 20260503021902 | 54 | 262 | 3.5 | 4.3 | 0.00 | 0.07 | 0.00 | 94 | 1014.4 |
| 20260503021637 | 53 | 176 | 1.7 | 3.5 | 0.00 | 0.07 | 0.00 | 93 | 1014.4 |
| 20260503020902 | 53 | 176 | 0.0 | 3.5 | 0.00 | 0.07 | 0.00 | 93 | 1014.4 |
| 20260503020403 | 54 | 176 | 1.7 | 3.5 | 0.00 | 0.07 | 0.00 | 93 | 1014.4 |
| 20260503015903 | 54 | 23 | 0.0 | 2.6 | 0.00 | 0.07 | 0.00 | 93 | 1014.4 |
| 20260503014903 | 54 | 23 | 0.0 | 0.9 | 0.00 | 0.07 | 0.00 | 93 | 1014.5 |
| 20260503014403 | 54 | 23 | 0.0 | 0.0 | 0.00 | 0.07 | 0.00 | 93 | 1014.6 |
| 20260503013903 | 54 | 23 | 0.0 | 0.0 | 0.00 | 0.07 | 0.00 | 93 | 1014.6 |
| 20260503013417 | 54 | 23 | 0.0 | 0.9 | 0.00 | 0.07 | 0.00 | 93 | 1014.7 |
| 20260503012902 | 54 | 23 | 0.0 | 0.9 | 0.00 | 0.07 | 0.00 | 93 | 1014.6 |
| 20260503012402 | 54 | 23 | 0.0 | 0.0 | 0.00 | 0.07 | 0.00 | 93 | 1014.7 |
| 20260503011901 | 55 | 23 | 0.0 | 0.0 | 0.00 | 0.07 | 0.00 | 93 | 1014.8 |
| 20260503011416 | 55 | 23 | 0.0 | 1.7 | 0.00 | 0.07 | 0.00 | 93 | 1014.8 |
| 20260503010901 | 55 | 23 | 1.7 | 2.6 | 0.00 | 0.07 | 0.00 | 93 | 1014.9 |
| 20260503010401 | 55 | 23 | 1.7 | 2.6 | 0.00 | 0.07 | 0.00 | 93 | 1014.8 |
| 20260503005859 | 55 | 23 | 1.7 | 2.6 | 0.00 | 0.07 | 0.00 | 93 | 1014.9 |
| 20260503005359 | 55 | 23 | 0.9 | 1.7 | 0.00 | 0.07 | 0.00 | 93 | 1014.9 |
| 20260503004859 | 55 | 23 | 0.9 | 1.7 | 0.00 | 0.07 | 0.00 | 93 | 1015.0 |
| 20260503004359 | 55 | 23 | 0.0 | 1.7 | 0.00 | 0.07 | 0.00 | 93 | 1015.0 |
| 20260503003859 | 55 | 23 | 0.0 | 0.9 | 0.00 | 0.07 | 0.00 | 92 | 1015.0 |
| 20260503003359 | 55 | 23 | 0.0 | 0.9 | 0.00 | 0.07 | 0.00 | 92 | 1015.0 |
| 20260503002859 | 56 | 23 | 0.0 | 0.0 | 0.00 | 0.07 | 0.00 | 92 | 1015.1 |
| 20260503002634 | 56 | 23 | 0.0 | 0.0 | 0.00 | 0.07 | 0.00 | 92 | 1015.1 |
| 20260503001859 | 56 | 23 | 0.0 | 0.0 | 0.00 | 0.07 | 0.00 | 92 | 1015.2 |
| 20260503001359 | 56 | 23 | 0.0 | 3.5 | 0.00 | 0.07 | 0.00 | 92 | 1015.2 |
| 20260503000859 | 56 | 23 | 0.9 | 4.3 | 0.00 | 0.07 | 0.00 | 92 | 1015.2 |
| 20260503000400 | 56 | 23 | 3.5 | 4.3 | 0.00 | 0.07 | 0.00 | 92 | 1015.2 |
| 20260502235858 | 56 | 18 | 0.0 | 0.0 | 0.00 | 0.07 | 0.00 | 92 | 1015.4 |
| 20260502235359 | 56 | 18 | 0.0 | 0.9 | 0.00 | 0.07 | 0.00 | 92 | 1015.4 |
| 20260502234858 | 56 | 18 | 0.0 | 2.6 | 0.00 | 0.07 | 0.00 | 92 | 1015.5 |
| 20260502234358 | 57 | 18 | 0.9 | 2.6 | 0.00 | 0.07 | 0.00 | 92 | 1015.5 |
| 20260502233858 | 57 | 18 | 0.9 | 2.6 | 0.00 | 0.07 | 0.00 | 92 | 1015.5 |
| 20260502233358 | 57 | 18 | 0.9 | 1.7 | 0.00 | 0.07 | 0.00 | 92 | 1015.5 |
| 20260502232858 | 57 | 18 | 0.9 | 1.7 | 0.00 | 0.07 | 0.00 | 92 | 1015.5 |
| 20260502232358 | 57 | 18 | 0.0 | 0.0 | 0.00 | 0.07 | 0.00 | 92 | 1015.5 |
| 20260502231858 | 57 | 18 | 0.0 | 0.0 | 0.00 | 0.07 | 0.00 | 92 | 1015.6 |
| 20260502231358 | 57 | 18 | 0.0 | 0.0 | 0.00 | 0.07 | 0.00 | 92 | 1015.6 |
| 20260502231134 | 57 | 18 | 0.0 | 0.0 | 0.00 | 0.07 | 0.00 | 92 | 1015.6 |
| 20260502230357 | 57 | 18 | 0.0 | 0.0 | 0.00 | 0.07 | 0.00 | 92 | 1015.5 |
| 20260502225857 | 57 | 18 | 0.0 | 2.6 | 0.00 | 0.07 | 0.00 | 92 | 1015.6 |
| 20260502224857 | 58 | 18 | 0.0 | 3.5 | 0.00 | 0.07 | 0.00 | 92 | 1015.6 |
| 20260502223857 | 58 | 33 | 2.6 | 3.5 | 0.00 | 0.07 | 0.00 | 91 | 1015.6 |
| 20260502223356 | 58 | 87 | 0.0 | 0.0 | 0.00 | 0.07 | 0.00 | 91 | 1015.7 |
| 20260502222856 | 58 | 87 | 0.0 | 0.0 | 0.00 | 0.07 | 0.00 | 91 | 1015.6 |
| 20260502222356 | 59 | 87 | 0.0 | 3.5 | 0.00 | 0.07 | 0.00 | 91 | 1015.6 |
| 20260502221856 | 59 | 87 | 0.0 | 5.2 | 0.00 | 0.07 | 0.00 | 92 | 1015.7 |
| 20260502221356 | 59 | 91 | 2.6 | 5.2 | 0.00 | 0.07 | 0.00 | 92 | 1015.6 |
| 20260502220856 | 59 | 80 | 3.5 | 4.3 | 0.00 | 0.07 | 0.00 | 91 | 1015.7 |
| 20260502220356 | 59 | 80 | 3.5 | 4.3 | 0.00 | 0.07 | 0.00 | 91 | 1015.6 |
| 20260502215856 | 59 | 80 | 2.6 | 4.3 | 0.00 | 0.07 | 0.07 | 91 | 1015.6 |
| 20260502215355 | 60 | 80 | 1.7 | 2.6 | 0.00 | 0.07 | 0.07 | 91 | 1015.7 |
| 20260502214855 | 60 | 80 | 1.7 | 2.6 | 0.00 | 0.07 | 0.07 | 91 | 1015.7 |
| 20260502214355 | 60 | 80 | 0.0 | 3.5 | 0.00 | 0.07 | 0.07 | 91 | 1015.7 |
| 20260502213855 | 60 | 80 | 1.7 | 3.5 | 0.00 | 0.07 | 0.07 | 91 | 1015.7 |
| 20260502213354 | 60 | 80 | 0.9 | 3.5 | 0.00 | 0.07 | 0.07 | 91 | 1015.6 |
| 20260502213127 | 60 | 80 | 2.6 | 3.5 | 0.00 | 0.07 | 0.07 | 91 | 1015.6 |
| 20260502212355 | 60 | 80 | 0.9 | 3.5 | 0.00 | 0.07 | 0.07 | 91 | 1015.6 |
| 20260502211854 | 60 | 80 | 2.6 | 3.5 | 0.01 | 0.07 | 0.07 | 91 | 1015.6 |
| 20260502211355 | 60 | 80 | 0.0 | 0.0 | 0.01 | 0.07 | 0.07 | 91 | 1015.5 |
| 20260502211131 | 60 | 80 | 0.0 | 0.0 | 0.02 | 0.07 | 0.07 | 90 | 1015.5 |
| 20260502210354 | 60 | 80 | 0.0 | 1.7 | 0.02 | 0.07 | 0.07 | 90 | 1015.5 |
| 20260502205854 | 60 | 80 | 0.0 | 1.7 | 0.02 | 0.05 | 0.07 | 90 | 1015.6 |
| 20260502205631 | 60 | 80 | 0.0 | 1.7 | 0.02 | 0.05 | 0.07 | 90 | 1015.5 |
| 20260502204853 | 61 | 80 | 1.7 | 2.6 | 0.03 | 0.05 | 0.07 | 90 | 1015.6 |
| 20260502204354 | 61 | 80 | 1.7 | 2.6 | 0.04 | 0.05 | 0.07 | 89 | 1015.5 |
| 20260502203853 | 61 | 80 | 0.9 | 3.5 | 0.05 | 0.05 | 0.07 | 89 | 1015.5 |
| 20260502203353 | 61 | 80 | 0.0 | 4.3 | 0.06 | 0.05 | 0.07 | 88 | 1015.5 |
| 20260502203129 | 61 | 80 | 3.5 | 4.3 | 0.06 | 0.05 | 0.07 | 88 | 1015.6 |
| 20260502202353 | 61 | 107 | 1.7 | 3.5 | 0.07 | 0.05 | 0.06 | 88 | 1015.5 |
| 20260502201853 | 61 | 171 | 0.9 | 3.5 | 0.06 | 0.05 | 0.06 | 87 | 1015.5 |
| 20260502201352 | 61 | 171 | 2.6 | 5.2 | 0.06 | 0.05 | 0.06 | 87 | 1015.5 |
| 20260502200353 | 62 | 207 | 4.3 | 6.1 | 0.06 | 0.05 | 0.06 | 86 | 1015.5 |
| 20260502195852 | 62 | 185 | 4.3 | 7.8 | 0.05 | 0.00 | 0.05 | 85 | 1015.4 |
| 20260502195353 | 63 | 173 | 4.3 | 7.8 | 0.05 | 0.00 | 0.04 | 84 | 1015.5 |
| 20260502194852 | 64 | 201 | 5.2 | 6.1 | 0.04 | 0.00 | 0.04 | 82 | 1015.4 |
| 20260502194352 | 64 | 291 | 4.3 | 5.2 | 0.03 | 0.00 | 0.03 | 80 | 1015.4 |
| 20260502193852 | 65 | 358 | 3.5 | 8.7 | 0.02 | 0.00 | 0.02 | 79 | 1015.2 |
| 20260502193352 | 66 | 28 | 6.1 | 8.7 | 0.02 | 0.00 | 0.02 | 76 | 1015.4 |
| 20260502192852 | 67 | 43 | 3.5 | 4.3 | 0.01 | 0.00 | 0.01 | 74 | 1015.2 |
| 20260502192352 | 68 | 71 | 0.9 | 3.5 | 0.00 | 0.00 | 0.00 | 66 | 1015.5 |
| 20260502191851 | 68 | 33 | 1.7 | 3.5 | 0.00 | 0.00 | 0.00 | 63 | 1015.4 |
| 20260502191639 | 68 | 107 | 2.6 | 3.5 | 0.00 | 0.00 | 0.00 | 59 | 1015.4 |
| 20260502190850 | 69 | 133 | 1.7 | 4.3 | 0.00 | 0.00 | 0.00 | 58 | 1015.2 |
| 20260502190350 | 69 | 150 | 2.6 | 7.8 | 0.00 | 0.00 | 0.00 | 61 | 1015.1 |
| 20260502190157 | 69 | 146 | 5.2 | 7.8 | 0.00 | 0.00 | 0.00 | 56 | 1015.1 |
| 20260502185350 | 69 | 142 | 5.2 | 6.1 | 0.00 | 0.00 | 0.00 | 56 | 1015.0 |
| 20260502184848 | 69 | 147 | 3.5 | 8.7 | 0.00 | 0.00 | 0.00 | 55 | 1015.0 |
| 20260502184347 | 69 | 163 | 4.3 | 14.8 | 0.00 | 0.00 | 0.00 | 59 | 1015.1 |
| 20260502183848 | 69 | 122 | 7.8 | 14.8 | 0.00 | 0.00 | 0.00 | 62 | 1015.2 |
| 20260502183350 | 70 | 108 | 10.4 | 13.9 | 0.00 | 0.00 | 0.00 | 64 | 1015.1 |
| 20260502183124 | 71 | 174 | 2.6 | 13.0 | 0.00 | 0.00 | 0.00 | 61 | 1014.8 |
| 20260502182621 | 71 | 202 | 7.0 | 10.4 | 0.00 | 0.00 | 0.00 | 59 | 1014.6 |
| 20260502181846 | 72 | 211 | 5.2 | 10.4 | 0.00 | 0.00 | 0.00 | 57 | 1015.1 |
| 20260502181346 | 73 | 221 | 6.1 | 8.7 | 0.00 | 0.00 | 0.00 | 55 | 1015.1 |
| 20260502180844 | 73 | 224 | 5.2 | 8.7 | 0.00 | 0.00 | 0.00 | 54 | 1015.0 |
| 20260502180618 | 73 | 242 | 7.8 | 8.7 | 0.00 | 0.00 | 0.00 | 52 | 1015.0 |
| 20260502170332 | 75 | 243 | 5.2 | 11.3 | 0.00 | 0.00 | 0.00 | 50 | 1014.7 |
| 20260502164333 | 75 | 207 | 7.0 | 11.3 | 0.00 | 0.00 | 0.00 | 49 | 1014.8 |
| 20260502163831 | 76 | 218 | 7.8 | 10.4 | 0.00 | 0.00 | 0.00 | 49 | 1014.8 |
| 20260502163331 | 76 | 233 | 7.8 | 9.6 | 0.00 | 0.00 | 0.00 | 48 | 1014.9 |
| 20260502162831 | 76 | 235 | 7.0 | 9.6 | 0.00 | 0.00 | 0.00 | 48 | 1014.9 |
| 20260502162331 | 76 | 226 | 6.1 | 11.3 | 0.00 | 0.00 | 0.00 | 48 | 1014.8 |
| 20260502161831 | 75 | 238 | 7.0 | 13.0 | 0.00 | 0.00 | 0.00 | 48 | 1014.9 |
| 20260502161332 | 75 | 187 | 5.2 | 13.0 | 0.00 | 0.00 | 0.00 | 48 | 1014.9 |
| 20260502160831 | 76 | 224 | 8.7 | 13.0 | 0.00 | 0.00 | 0.00 | 48 | 1015.0 |
| 20260502160331 | 76 | 231 | 7.8 | 14.8 | 0.00 | 0.00 | 0.00 | 48 | 1015.1 |
| 20260502152330 | 77 | 216 | 7.8 | 13.0 | 0.00 | 0.00 | 0.00 | 45 | 1015.4 |
| 20260502151829 | 77 | 248 | 8.7 | 13.0 | 0.00 | 0.00 | 0.00 | 44 | 1015.5 |
| 20260502151329 | 77 | 225 | 9.6 | 13.0 | 0.00 | 0.00 | 0.00 | 43 | 1015.4 |
| 20260502150827 | 78 | 216 | 7.0 | 10.4 | 0.00 | 0.00 | 0.00 | 42 | 1015.2 |
| 20260502150326 | 78 | 253 | 7.8 | 10.4 | 0.00 | 0.00 | 0.00 | 42 | 1015.4 |
| 20260502130544 | 77 | 263 | 9.6 | 13.9 | 0.00 | 0.00 | 0.00 | 43 | 1016.8 |
| 20260502123806 | 76 | 214 | 9.6 | 11.3 | 0.00 | 0.00 | 0.00 | 44 | 1017.1 |
| 20260502123304 | 77 | 264 | 7.0 | 10.4 | 0.00 | 0.00 | 0.00 | 43 | 1017.1 |
| 20260502122805 | 77 | 239 | 7.0 | 10.4 | 0.00 | 0.00 | 0.00 | 43 | 1017.3 |
| 20260502122305 | 77 | 310 | 3.5 | 10.4 | 0.00 | 0.00 | 0.00 | 44 | 1017.3 |
| 20260502121302 | 76 | 209 | 7.8 | 11.3 | 0.00 | 0.00 | 0.00 | 45 | 1017.4 |
| 20260502120803 | 75 | 260 | 7.0 | 11.3 | 0.00 | 0.00 | 0.00 | 46 | 1017.5 |
| 20260502120302 | 76 | 219 | 4.3 | 10.4 | 0.00 | 0.00 | 0.00 | 47 | 1017.6 |
| 20260502115804 | 76 | 266 | 7.8 | 10.4 | 0.00 | 0.00 | 0.00 | 45 | 1017.6 |
| 20260502115305 | 76 | 290 | 4.3 | 7.8 | 0.00 | 0.00 | 0.00 | 44 | 1017.6 |
| 20260502115035 | 76 | 257 | 0.9 | 11.3 | 0.00 | 0.00 | 0.00 | 45 | 1017.7 |
| 20260502114301 | 75 | 184 | 5.2 | 11.3 | 0.00 | 0.00 | 0.00 | 45 | 1017.8 |
| 20260502113802 | 75 | 271 | 7.8 | 13.0 | 0.00 | 0.00 | 0.00 | 44 | 1018.0 |
| 20260502113303 | 75 | 259 | 5.2 | 13.0 | 0.00 | 0.00 | 0.00 | 46 | 1018.0 |
| 20260502112802 | 75 | 228 | 8.7 | 11.3 | 0.00 | 0.00 | 0.00 | 45 | 1018.0 |
| 20260502112305 | 75 | 222 | 3.5 | 11.3 | 0.00 | 0.00 | 0.00 | 44 | 1018.2 |
| 20260502111802 | 75 | 266 | 2.6 | 11.3 | 0.00 | 0.00 | 0.00 | 45 | 1018.2 |
| 20260502111302 | 75 | 201 | 9.6 | 11.3 | 0.00 | 0.00 | 0.00 | 46 | 1018.3 |
| 20260502110801 | 74 | 239 | 5.2 | 8.7 | 0.00 | 0.00 | 0.00 | 47 | 1018.4 |
| 20260502110306 | 74 | 281 | 4.3 | 8.7 | 0.00 | 0.00 | 0.00 | 48 | 1018.4 |
| 20260502105803 | 74 | 212 | 1.7 | 9.6 | 0.00 | 0.00 | 0.00 | 50 | 1018.5 |
| 20260502105305 | 73 | 183 | 3.5 | 11.3 | 0.00 | 0.00 | 0.00 | 51 | 1018.6 |
| 20260502104802 | 73 | 232 | 5.2 | 11.3 | 0.00 | 0.00 | 0.00 | 52 | 1018.6 |
| 20260502104302 | 73 | 222 | 7.8 | 10.4 | 0.00 | 0.00 | 0.00 | 53 | 1018.7 |
| 20260502103803 | 72 | 185 | 5.2 | 9.6 | 0.00 | 0.00 | 0.00 | 53 | 1018.8 |
| 20260502103302 | 72 | 215 | 7.0 | 9.6 | 0.00 | 0.00 | 0.00 | 53 | 1018.9 |
| 20260502102802 | 73 | 249 | 3.5 | 9.6 | 0.00 | 0.00 | 0.00 | 53 | 1019.1 |
| 20260502102305 | 72 | 211 | 2.6 | 9.6 | 0.00 | 0.00 | 0.00 | 55 | 1019.1 |
| 20260502101802 | 72 | 310 | 2.6 | 9.6 | 0.00 | 0.00 | 0.00 | 56 | 1019.2 |
| 20260502101302 | 72 | 226 | 3.5 | 9.6 | 0.00 | 0.00 | 0.00 | 54 | 1019.3 |
| 20260502100802 | 72 | 239 | 2.6 | 9.6 | 0.00 | 0.00 | 0.00 | 56 | 1019.4 |
| 20260502100302 | 71 | 255 | 6.1 | 9.6 | 0.00 | 0.00 | 0.00 | 56 | 1019.4 |
| 20260502090802 | 67 | 253 | 1.7 | 6.1 | 0.00 | 0.00 | 0.00 | 60 | 1020.1 |
| 20260502090303 | 66 | 259 | 4.3 | 6.1 | 0.00 | 0.00 | 0.00 | 61 | 1020.1 |
| 20260502071244 | 57 | 345 | 0.0 | 1.7 | 0.00 | 0.00 | 0.00 | 77 | 1021.3 |
| 20260502070244 | 57 | 345 | 0.0 | 1.7 | 0.00 | 0.00 | 0.00 | 77 | 1021.2 |
| 20260502065740 | 56 | 224 | 0.0 | 0.9 | 0.00 | 0.00 | 0.00 | 78 | 1021.2 |
| 20260502065241 | 56 | 224 | 0.0 | 0.0 | 0.00 | 0.00 | 0.00 | 79 | 1021.3 |
| 20260502065025 | 55 | 224 | 0.0 | 0.9 | 0.00 | 0.00 | 0.00 | 81 | 1021.3 |
| 20260502064459 | 55 | 224 | 0.0 | 0.9 | 0.00 | 0.00 | 0.00 | 81 | 1021.3 |
| 20260502063740 | 54 | 224 | 0.0 | 0.9 | 0.00 | 0.00 | 0.00 | 83 | 1021.1 |
| 20260502063240 | 54 | 224 | 0.0 | 0.9 | 0.00 | 0.00 | 0.00 | 83 | 1021.2 |
| 20260502062739 | 53 | 224 | 0.0 | 0.0 | 0.00 | 0.00 | 0.00 | 83 | 1021.2 |
| 20260502062237 | 53 | 224 | 0.0 | 0.0 | 0.00 | 0.00 | 0.00 | 84 | 1021.2 |
| 20260502061736 | 52 | 224 | 0.0 | 0.0 | 0.00 | 0.00 | 0.00 | 84 | 1021.2 |
| 20260502061237 | 52 | 224 | 0.0 | 0.0 | 0.00 | 0.00 | 0.00 | 85 | 1021.2 |
| 20260502060735 | 52 | 224 | 0.0 | 0.9 | 0.00 | 0.00 | 0.00 | 85 | 1021.2 |
| 20260502060236 | 51 | 224 | 0.0 | 0.9 | 0.00 | 0.00 | 0.00 | 86 | 1021.3 |
| 20260502055730 | 51 | 224 | 0.0 | 0.0 | 0.00 | 0.00 | 0.00 | 86 | 1021.3 |
| 20260502055229 | 51 | 224 | 0.0 | 0.0 | 0.00 | 0.00 | 0.00 | 86 | 1021.2 |
| 20260502054728 | 51 | 224 | 0.0 | 0.0 | 0.00 | 0.00 | 0.00 | 86 | 1021.3 |
| 20260502054231 | 50 | 224 | 0.0 | 0.0 | 0.00 | 0.00 | 0.00 | 86 | 1021.3 |
| 20260502053730 | 50 | 224 | 0.0 | 0.0 | 0.00 | 0.00 | 0.00 | 87 | 1021.3 |